Tracking 28799 objects as of 18-Apr-2024
HD Live streaming from Space Station
objects crossing your sky now

SL-12 R/B(2)

Track SL-12 R/B(2) now!


NORAD ID: 26486
Int'l Code: 2000-051D
Perigee: 2,671.6 km
Apogee: 50,301.1 km
Inclination: 63.1 °
Period: 987.9 minutes
Semi major axis: 32857 km
RCS: 27.9141 m2 (large)
Launch date: September 5, 2000
Source: Commonwealth of Independent States (former USSR) (CIS)
Launch site: TYURATAM MISSILE AND SPACE COMPLEX (TTMTR)

Note: This is a ROCKET BODY
Your satellite tracking list
Your tracking list is empty




NASA's NSSDC Master Catalog

Two Line Element Set (TLE):
1 26486U 00051D   24105.98415747 -.00000113  00000-0  00000+0 0  9994
2 26486  63.1456 291.1722 7247924 277.5125 346.7152  1.45765430125664
Source of the keplerian elements: AFSPC